IR1CH-3 Weather Reports


time (UTC)temp
F
wind
direction
speed
knots
gust
knots
rain 1hr
in
rain 24hr
in
rain mn
in
humidity
%
barometer
mb
20260507011107 57 0.0 0.0 0.00 0.00 0.00 99 1011.2
20260507004107 57 0.0 0.0 0.00 0.00 0.00 99 1011.4
20260507001107 57 0.0 0.0 0.00 0.00 0.00 99 1011.2
20260506234107 57 0.0 0.0 0.00 0.00 0.00 99 1011.1
20260506231106 57 0.0 0.0 0.00 0.00 0.00 99 1011.0
20260506224106 58 0.0 0.0 0.00 0.00 0.00 99 1011.0
20260506221106 58 0.0 0.0 0.00 0.00 0.00 99 1011.1
20260506214105 59 0.0 0.0 0.00 0.00 0.00 99 1010.9
20260506211105 59 0.0 0.0 0.00 0.00 0.00 99 1010.6
20260506204134 60 0.0 0.0 0.00 0.00 0.00 99 1010.4
20260506201134 60 0.0 0.0 0.00 0.00 0.00 99 1009.8
20260506194134 60 0.0 0.0 0.00 0.00 0.00 99 1009.5
20260506191133 59 0.0 0.0 0.00 0.00 0.00 99 1009.6
20260506184133 60 0.0 0.0 0.00 0.00 0.00 99 1008.9
20260506181133 59 0.0 0.0 0.00 0.00 0.00 99 1009.1
20260506174132 59 0.0 0.0 0.00 0.00 0.00 99 1008.6
20260506171132 61 0.0 0.0 0.00 0.00 0.00 98 1007.6
20260506164132 62 0.0 0.0 0.00 0.00 0.00 97 1007.3
20260506161131 62 0.0 0.0 0.00 0.00 0.00 99 1007.3
20260506154131 62 0.0 0.0 0.00 0.00 0.00 99 1007.4
20260506151131 62 0.0 0.0 0.00 0.00 0.00 99 1007.4
20260506144131 61 0.0 0.0 0.00 0.00 0.00 99 1007.9
20260506141130 61 0.0 0.0 0.00 0.00 0.00 99 1008.4
20260506134130 61 0.0 0.0 0.00 0.00 0.00 99 1008.0
20260506131130 62 0.0 0.0 0.00 0.00 0.00 99 1007.8
20260506124129 65 0.0 0.0 0.00 0.00 0.00 84 1007.4
20260506121129 62 0.0 0.0 0.00 0.00 0.00 99 1008.0
20260506114129 61 0.0 0.0 0.00 0.00 0.00 99 1008.5
20260506111128 62 0.0 0.0 0.00 0.00 0.00 99 1008.4
20260506104128 61 0.0 0.0 0.00 0.00 0.00 99 1008.8
20260506101128 61 0.0 0.0 0.00 0.00 0.00 99 1008.9
20260506094127 59 0.0 0.0 0.00 0.00 0.00 99 1009.1
20260506091127 59 0.0 0.0 0.00 0.00 0.00 99 1009.1
20260506084127 60 0.0 0.0 0.00 0.00 0.00 99 1008.9
20260506081126 59 0.0 0.0 0.00 0.00 0.00 99 1009.0
20260506071126 58 0.0 0.0 0.00 0.00 0.00 99 1009.0
20260506061125 60 0.0 0.0 0.00 0.00 0.00 99 1008.0
20260506051124 56 0.0 0.0 0.00 0.00 0.00 99 1009.5
20260506044124 58 0.0 0.0 0.00 0.00 0.00 99 1009.4
20260506041124 56 0.0 0.0 0.00 0.00 0.00 99 1009.5
20260506034123 56 0.0 0.0 0.00 0.00 0.00 99 1010.0
20260506031123 56 0.0 0.0 0.00 0.00 0.00 99 1009.7
20260506024123 57 0.0 0.0 0.00 0.00 0.00 99 1009.3
20260506021122 57 0.0 0.0 0.00 0.00 0.00 99 1009.5
20260506014122 57 0.0 0.0 0.00 0.00 0.00 99 1010.5